Location: Unspecified
(0.0000°N, 0.0000°E)
Time: 17:09:38
(UTC+02:00)

HO-68 - Visible Passes

Search period start: 30 July 2014 00:00
Search period end: 09 August 2014 00:00
Orbit: 1193 x 1204 km, 100.2° (Epoch: 30 July)

Date Brightness Start Highest point End Pass type
(mag) Time Alt. Az. Time Alt. Az. Time Alt. Az.
30 Jul ? 21:35:17 14° ENE 21:35:17 14° ENE 21:37:19 10° NE visible
30 Jul ? 23:24:44 27° NW 23:24:44 27° NW 23:27:44 10° NNW visible
31 Jul ? 23:07:38 32° NNW 23:07:38 32° NNW 23:11:05 10° NNW visible
01 Aug ? 22:50:31 34° N 22:50:31 34° N 22:54:14 10° N visible
02 Aug ? 22:33:25 33° NNE 22:33:25 33° NNE 22:37:11 10° N visible
03 Aug ? 22:16:19 28° NNE 22:16:19 28° NNE 22:19:54 10° N visible
04 Aug ? 00:05:46 11° WNW 00:05:46 11° WNW 00:06:12 10° NW visible
04 Aug ? 21:59:13 22° NE 21:59:13 22° NE 22:02:20 10° NNE visible
04 Aug ? 23:48:40 17° NW 23:48:40 17° NW 23:50:14 10° NW visible
05 Aug ? 21:42:07 16° NE 21:42:07 16° NE 21:44:20 10° NE visible
05 Aug ? 23:31:34 22° NW 23:31:34 22° NW 23:33:56 10° NNW visible
06 Aug ? 21:25:01 10° ENE 21:25:01 10° ENE 21:25:16 10° NE visible
06 Aug ? 23:14:28 27° NNW 23:14:28 27° NNW 23:17:23 10° NNW visible
07 Aug ? 22:57:23 30° NNW 22:57:23 30° NNW 23:00:37 10° NNW visible
08 Aug ? 22:40:17 30° N 22:40:17 30° N 22:43:38 10° N visible
